This is the latest recevied weather packets stored in our database for station/object KC8PTQ. If no packets are shown the sender has not sent any weather packets the latest 10 day(s).
| Time | Temp. | Humidity | Pressure | Rain* | Wind** | Luminosity | Snow |
|---|---|---|---|---|---|---|---|
| 1778165285 | 11.67° C | 60% | 1014.2 hPa | 0 mm | - | 202 W/m² | - |
| 1778164982 | 11.11° C | 64% | 1014 hPa | 0 mm | - | 238 W/m² | - |
| 1778164678 | 11.67° C | 59% | 1014.1 hPa | 0 mm | - | 196 W/m² | - |
| 1778164376 | 11.11° C | 62% | 1014.1 hPa | 0 mm | - | 179 W/m² | - |
| 1778164071 | 11.67° C | 66% | 1014.1 hPa | 0 mm | - | 81 W/m² | - |
| 1778163768 | 11.11° C | 70% | 1014.1 hPa | 0 mm | - | 345 W/m² | - |
| 1778163465 | 10.56° C | 66% | 1014 hPa | 0 mm | - | 85 W/m² | - |
| 1778163162 | 10.56° C | 66% | 1014.2 hPa | 0 mm | - | 390 W/m² | - |
| 1778162857 | 10.56° C | 64% | 1014.3 hPa | 0 mm | - | 241 W/m² | - |
| 1778162556 | 10.56° C | 67% | 1014.3 hPa | 0 mm | - | 253 W/m² | - |
| 1778162253 | 10.56° C | 65% | 1014.3 hPa | 0 mm | - | 44 W/m² | - |
| 1778161950 | 10.56° C | 69% | 1014.4 hPa | 0 mm | - | 284 W/m² | - |
| 1778161646 | 10° C | 69% | 1014.4 hPa | 0 mm | - | 387 W/m² | - |
| 1778161342 | 9.44° C | 72% | 1014.5 hPa | 0 mm | - | 359 W/m² | - |
| 1778161038 | 8.89° C | 73% | 1014.6 hPa | 0 mm | - | 251 W/m² | - |
| 1778160735 | 8.89° C | 72% | 1014.6 hPa | 0 mm | - | 206 W/m² | - |
| 1778160433 | 8.89° C | 76% | 1014.6 hPa | 0 mm | - | 131 W/m² | - |
| 1778160129 | 8.89° C | 77% | 1014.6 hPa | 0 mm | - | 176 W/m² | - |
| 1778159826 | 8.33° C | 75% | 1014.6 hPa | 0 mm | - | 165 W/m² | - |
| 1778159524 | 8.33° C | 76% | 1014.5 hPa | 0 mm | - | 144 W/m² | - |
| 1778159220 | 8.33° C | 77% | 1014.5 hPa | 0 mm | - | 92 W/m² | - |
| 1778158917 | 7.78° C | 78% | 1014.5 hPa | 0 mm | - | 120 W/m² | - |
| 1778158617 | 7.78° C | 79% | 1014.6 hPa | 0 mm | - | 185 W/m² | - |
| 1778158314 | 7.78° C | 80% | 1014.5 hPa | 0 mm | - | 108 W/m² | - |
| 1778158010 | 7.78° C | 78% | 1014.7 hPa | 0 mm | - | 72 W/m² | - |
* Rain latest hour (hover to see other rain measurements)
** Current wind speed in m/s (hover to see current wind gust speed)